Weather History for LFPB - January, 2013

Change the Weather History Date:

Sunday, January 6, 2013

  Actual Average Record
Temperature  
Mean Temperature 45 °F -  
Max Temperature 46 °F 44 °F 59 °F (1999)
Min Temperature 44 °F 34 °F 14 °F (2009)
Degree Days  
Heating Degree Days 20    
Moisture  
Dew Point 44 °F    
Average Humidity 92    
Maximum Humidity 100    
Minimum Humidity 81    
Precipitation  
Precipitation 0.00 in 0.07 in - ()
Sea Level Pressure  
Sea Level Pressure 30.53 in    
Wind  
Wind Speed 3 mph ()    
Max Wind Speed 6 mph    
Max Gust Speed -    
Visibility 5.9 miles    
Events      
Averages and records for this station are not official NWS values.
T = Trace of Precipitation, MM = Missing Value Source: Averaged Metar Reports

Daily Weather History Graph

Daily Weather History Graph

Search for Another Location

Airport or City:

Trip Planner

Search our weather history database for the weather conditions in past years. The results will help you decide how hot, cold, wet, or windy it might be!

Date:

Astronomy

Jan. 06, 2013 Rise Set
Actual Time 8:43 AM CET 5:09 PM CET
Civil Twilight 8:06 AM CET 5:46 PM CET
Nautical Twilight 7:26 AM CET 6:26 PM CET
Astronomical Twilight 6:48 AM CET 7:04 PM CET
Moon 2:26 AM CET (1/6) 12:37 PM CET (1/6)
Length of Visible Light 9h 39m
Length of Day
8h 25m
Waning Crescent, 36% of the Moon is Illuminated
Jan 6
Waning Crescent
Jan 11
New
Jan 19
First Quarter
Jan 27
Full
Feb 3
Last Quarter

Hourly Weather History & Observations

Time (CET) Temp. Windchill Dew Point Humidity Pressure Visibility Wind Dir Wind Speed Gust Speed Precip Events Conditions
12:00 AM 46.4 °F 45.2 °F 44.6 °F 93% 30.60 in 6.2 mi Variable 3.5 mph - N/A   Overcast
12:30 AM 46.4 °F 45.2 °F 44.6 °F 93% 30.60 in 6.2 mi WNW 3.5 mph - N/A   Overcast
1:00 AM 46.4 °F - 44.6 °F 93% 30.57 in 6.2 mi SW 2.3 mph - N/A   Overcast
1:30 AM 46.4 °F - 44.6 °F 93% 30.57 in 6.2 mi West 2.3 mph - N/A   Overcast
2:00 AM 46.4 °F 45.2 °F 44.6 °F 93% 30.57 in 5.6 mi WNW 3.5 mph - N/A   Overcast
2:30 AM 46.4 °F 44.3 °F 44.6 °F 93% 30.57 in 6.2 mi WNW 4.6 mph - N/A   Overcast
3:00 AM 46.4 °F 44.3 °F 44.6 °F 93% 30.57 in 3.1 mi West 4.6 mph - N/A   Overcast
3:30 AM 46.4 °F 43.5 °F 44.6 °F 93% 30.57 in 5.0 mi West 5.8 mph - N/A   Overcast
4:00 AM 44.6 °F 43.1 °F 44.6 °F 100% 30.57 in 5.0 mi WSW 3.5 mph - N/A   Overcast
4:30 AM 44.6 °F 42.2 °F 44.6 °F 100% 30.54 in 4.3 mi WSW 4.6 mph - N/A   Overcast
5:00 AM 44.6 °F 43.1 °F 44.6 °F 100% 30.54 in 6.2 mi West 3.5 mph - N/A   Overcast
5:30 AM 44.6 °F 43.1 °F 44.6 °F 100% 30.54 in 6.2 mi WSW 3.5 mph - N/A   Overcast
6:00 AM 44.6 °F 42.2 °F 44.6 °F 100% 30.54 in 6.2 mi WSW 4.6 mph - N/A   Overcast
6:30 AM 44.6 °F 43.1 °F 44.6 °F 100% 30.54 in 6.2 mi Variable 3.5 mph - N/A   Overcast
7:00 AM 44.6 °F 41.4 °F 44.6 °F 100% 30.54 in 6.2 mi West 5.8 mph - N/A   Overcast
7:30 AM 44.6 °F 43.1 °F 44.6 °F 100% 30.54 in 6.2 mi West 3.5 mph - N/A   Overcast
8:00 AM 44.6 °F 41.4 °F 44.6 °F 100% 30.54 in 6.2 mi West 5.8 mph - N/A   Overcast
8:30 AM 44.6 °F 41.4 °F 44.6 °F 100% 30.54 in 5.6 mi West 5.8 mph - N/A   Overcast
9:00 AM 44.6 °F 42.2 °F 44.6 °F 100% 30.57 in 5.0 mi WNW 4.6 mph - N/A   Overcast
9:30 AM 44.6 °F 43.1 °F 44.6 °F 100% 30.54 in 5.6 mi WNW 3.5 mph - N/A   Overcast
10:00 AM 44.6 °F 43.1 °F 44.6 °F 100% 30.57 in 4.3 mi NW 3.5 mph - N/A   Overcast
10:30 AM 44.6 °F - 44.6 °F 100% 30.57 in 3.7 mi Variable 2.3 mph - N/A   Overcast
11:00 AM 46.4 °F 45.2 °F 44.6 °F 93% 30.57 in 5.6 mi Variable 3.5 mph - N/A   Overcast
11:30 AM 46.4 °F - 44.6 °F 93% 30.54 in 6.2 mi Variable 2.3 mph - N/A   Overcast
12:00 PM 46.4 °F 44.3 °F 44.6 °F 93% 30.54 in 6.2 mi WNW 4.6 mph - N/A   Overcast
12:30 PM 46.4 °F 45.2 °F 44.6 °F 93% 30.54 in 6.2 mi NW 3.5 mph - N/A   Overcast
1:00 PM 46.4 °F 45.2 °F 44.6 °F 93% 30.54 in 6.2 mi Variable 3.5 mph - N/A   Overcast
1:30 PM 46.4 °F - 42.8 °F 87% 30.51 in 6.2 mi Calm Calm - N/A   Overcast
2:00 PM 46.4 °F - 42.8 °F 87% 30.51 in 6.2 mi Variable 2.3 mph - N/A   Overcast
2:30 PM 46.4 °F - 42.8 °F 87% 30.51 in 6.2 mi Variable 2.3 mph - N/A   Overcast
3:00 PM 46.4 °F - 42.8 °F 87% 30.51 in 6.2 mi Calm Calm - N/A   Overcast
3:30 PM 46.4 °F - 42.8 °F 87% 30.51 in 6.2 mi North 2.3 mph - N/A   Overcast
4:00 PM 46.4 °F - 42.8 °F 87% 30.51 in 6.2 mi Variable 2.3 mph - N/A   Overcast
4:30 PM 46.4 °F - 41.0 °F 81% 30.48 in 6.2 mi Variable 1.2 mph - N/A   Overcast
5:00 PM 46.4 °F - 42.8 °F 87% 30.51 in 6.2 mi Variable 2.3 mph - N/A   Overcast
5:30 PM 46.4 °F - 41.0 °F 81% 30.48 in 6.2 mi Variable 2.3 mph - N/A   Overcast
6:00 PM 46.4 °F - 41.0 °F 81% 30.48 in 6.2 mi Variable 2.3 mph - N/A   Overcast
6:30 PM 46.4 °F - 42.8 °F 87% 30.48 in 6.2 mi Calm Calm - N/A   Overcast
7:00 PM 46.4 °F - 42.8 °F 87% 30.48 in 6.2 mi NNW 1.2 mph - N/A   Overcast
7:30 PM 46.4 °F - 41.0 °F 81% 30.48 in 6.2 mi NE 2.3 mph - N/A   Overcast
8:00 PM 44.6 °F 43.1 °F 42.8 °F 93% 30.48 in 6.2 mi ENE 3.5 mph - N/A   Overcast
8:30 PM 44.6 °F 43.1 °F 42.8 °F 93% 30.48 in 6.2 mi ESE 3.5 mph - N/A   Overcast
9:00 PM 46.4 °F 44.3 °F 42.8 °F 87% 30.48 in 6.2 mi ESE 4.6 mph - N/A   Overcast
9:30 PM 46.4 °F 44.3 °F 42.8 °F 87% 30.48 in 6.2 mi ESE 4.6 mph - N/A   Overcast
10:00 PM 46.4 °F - 42.8 °F 87% 30.48 in 6.2 mi Variable 2.3 mph - N/A   Overcast
10:30 PM 46.4 °F - 42.8 °F 87% 30.48 in 6.2 mi Variable 2.3 mph - N/A   Overcast
11:00 PM 46.4 °F 45.2 °F 42.8 °F 87% 30.48 in 6.2 mi South 3.5 mph - N/A   Overcast
11:30 PM 46.4 °F - 42.8 °F 87% 30.48 in 6.2 mi SW 2.3 mph - N/A   Overcast